Total_Precipitation_Accumulation
1.56 1.49 1.42 1.31 1.24 1.26 1.36 1.55 1.82 1.77 1.42 1.12 1.08 1.05 1.07 1.06 1.15 1.06 0.95 1.17 1.22 1.21 1.24 1.26 1.22 1.20 1.30 1.44 1.60 1.86 2.08 2.15 2.11 2.16 2.23 2.25 2.31 2.46
1.48 1.44 1.37 1.30 1.27 1.29 1.34 1.42 1.57 1.73 1.58 1.18 1.02 0.99 1.02 1.02 1.13 1.00 0.95 1.18 1.16 1.14 1.11 1.08 1.09 1.12 1.19 1.31 1.40 1.55 1.81 1.96 1.95 1.94 2.02 2.12 2.22 2.33
1.40 1.38 1.34 1.28 1.28 1.27 1.31 1.36 1.42 1.50 1.49 1.17 0.98 0.96 1.03 1.04 1.07 1.00 0.94 0.91 0.90 1.00 0.98 0.96 0.95 1.00 1.10 1.20 1.28 1.37 1.54 1.69 1.81 1.87 1.97 2.07 2.13 2.14
1.32 1.35 1.34 1.35 1.40 1.41 1.42 1.41 1.40 1.37 1.38 1.25 1.02 0.93 0.90 0.86 0.86 0.89 0.89 0.87 0.81 0.94 0.93 0.90 0.93 0.97 1.05 1.09 1.13 1.20 1.31 1.41 1.53 1.65 1.73 1.84 1.96 2.05
1.20 1.26 1.30 1.34 1.43 1.45 1.43 1.41 1.35 1.30 1.29 1.27 1.11 0.96 0.92 0.86 0.85 0.83 0.83 0.82 0.77 0.85 0.90 0.88 0.91 0.93 0.98 1.06 1.10 1.10 1.12 1.19 1.27 1.38 1.49 1.57 1.66 1.80
1.18 1.20 1.22 1.22 1.22 1.23 1.23 1.22 1.22 1.24 1.25 1.25 1.18 1.05 0.96 0.91 0.93 0.96 0.92 0.82 0.77 0.71 0.78 0.79 0.83 0.84 0.85 0.90 0.97 0.99 1.00 1.07 1.16 1.26 1.41 1.47 1.50 1.61
1.23 1.21 1.14 1.13 1.07 1.04 1.03 1.02 1.04 1.14 1.24 1.28 1.21 1.09 0.97 0.93 0.92 0.87 0.91 0.89 0.83 0.75 0.72 0.69 0.68 0.67 0.69 0.77 0.86 0.97 1.05 1.17 1.31 1.40 1.52 1.63 1.70 1.76
1.10 1.05 1.02 1.02 0.99 1.01 1.02 1.01 1.06 1.19 1.30 1.29 1.16 0.99 0.82 0.77 0.83 0.92 1.02 1.08 0.99 0.74 0.73 0.76 0.74 0.74 0.68 0.70 0.87 0.99 1.11 1.23 1.39 1.47 1.53 1.59 1.68 1.79
0.97 0.89 0.85 0.81 0.83 0.77 0.86 0.94 0.96 1.04 1.09 1.06 0.99 0.83 0.76 0.75 0.95 1.14 1.12 1.07 0.89 0.68 0.73 0.82 0.77 0.78 0.74 0.80 0.95 0.98 1.09 1.22 1.37 1.47 1.54 1.57 1.61 1.72
0.82 0.77 0.71 0.70 0.70 0.74 0.81 0.88 0.80 0.76 0.77 0.73 0.74 0.77 0.79 0.80 0.95 1.17 1.16 1.11 0.94 0.79 0.77 0.89 0.77 0.77 0.74 0.79 0.93 0.92 0.97 1.10 1.26 1.41 1.53 1.56 1.59 1.67
0.71 0.72 0.73 0.67 0.75 0.88 0.88 0.87 0.74 0.63 0.67 0.75 0.80 0.81 0.85 0.86 0.91 1.20 1.34 1.37 1.19 0.89 0.75 0.78 0.71 0.71 0.77 0.82 0.89 0.97 0.96 1.04 1.19 1.31 1.38 1.49 1.60 1.66
0.64 0.67 0.76 0.73 0.81 0.91 0.82 0.79 0.73 0.62 0.60 0.60 0.61 0.61 0.60 0.66 0.79 0.98 1.39 1.68 1.40 1.06 0.72 0.83 0.85 0.91 1.13 0.87 0.84 0.90 0.93 1.04 1.16 1.22 1.26 1.37 1.48 1.48
0.62 0.60 0.62 0.81 0.88 0.87 0.78 0.66 0.70 0.75 0.65 0.56 0.55 0.54 0.53 0.55 0.59 0.67 0.97 1.58 1.79 1.29 0.72 1.17 1.36 1.07 1.26 1.00 0.85 0.91 1.02 1.17 1.25 1.26 1.28 1.32 1.39 1.47
0.57 0.52 0.59 0.79 0.78 0.73 0.66 0.69 0.82 0.78 0.64 0.63 0.61 0.59 0.56 0.53 0.52 0.57 0.67 0.88 1.20 1.29 0.95 1.36 1.85 1.44 1.52 1.28 1.01 1.02 1.08 1.28 1.53 1.59 1.53 1.54 1.48 1.48
0.63 0.70 0.74 0.70 0.63 0.60 0.63 0.68 0.68 0.64 0.70 0.78 0.73 0.62 0.56 0.55 0.57 0.62 0.65 0.72 0.82 0.86 0.91 1.07 1.48 1.56 1.75 1.71 1.34 1.15 1.26 1.39 1.68 1.95 1.85 1.64 1.46 1.41
0.74 0.78 0.72 0.63 0.58 0.57 0.61 0.61 0.58 0.60 0.73 0.82 0.76 0.64 0.59 0.63 0.69 0.76 0.87 0.90 0.99 0.92 0.89 0.95 1.14 1.50 1.66 1.43 1.49 1.40 1.42 1.76 1.94 2.12 1.99 1.74 1.51 1.37
0.82 0.67 0.59 0.56 0.56 0.53 0.52 0.52 0.56 0.63 0.71 0.72 0.77 0.76 0.70 0.69 0.71 0.81 1.03 1.15 1.21 1.04 0.94 0.90 0.93 1.07 1.28 1.39 1.46 1.37 1.48 1.71 1.92 2.07 1.89 1.74 1.65 1.52
0.79 0.66 0.61 0.56 0.53 0.50 0.49 0.52 0.54 0.60 0.68 0.79 0.83 0.83 0.84 0.83 0.82 0.84 1.04 1.24 1.25 1.10 1.00 0.92 0.94 1.05 1.08 1.10 1.31 1.49 1.54 1.72 1.83 1.78 1.51 1.54 1.62 1.48
0.70 0.66 0.62 0.59 0.56 0.53 0.54 0.57 0.57 0.57 0.69 0.84 0.92 0.93 0.94 0.91 0.93 0.99 1.07 1.16 1.14 1.02 0.89 0.83 0.98 1.35 1.41 1.04 0.87 1.20 1.59 1.69 1.57 1.49 1.33 1.35 1.58 1.48
0.61 0.63 0.61 0.60 0.61 0.63 0.65 0.68 0.68 0.68 0.74 0.84 0.90 0.94 1.02 1.08 1.07 1.06 1.10 1.15 1.11 0.92 0.75 0.65 0.78 1.25 1.74 1.55 1.23 1.11 1.24 1.47 1.58 1.59 1.35 1.21 1.30 1.30
0.57 0.57 0.57 0.59 0.65 0.70 0.73 0.76 0.80 0.85 0.89 1.00 1.01 1.02 1.09 1.20 1.15 1.05 1.04 1.00 0.95 0.87 0.77 0.61 0.60 0.85 1.22 1.40 1.25 0.98 1.05 1.20 1.39 1.75 1.70 1.54 1.32 1.14
0.58 0.58 0.58 0.59 0.66 0.72 0.75 0.80 0.86 0.88 0.93 1.03 1.07 1.10 1.15 1.24 1.21 1.05 0.96 0.94 0.87 0.81 0.75 0.62 0.56 0.68 0.94 1.26 1.12 0.85 0.85 0.89 0.94 1.03 1.30 1.68 2.09 2.14
0.63 0.63 0.62 0.66 0.71 0.76 0.80 0.81 0.87 0.89 0.95 1.07 1.12 1.11 1.12 1.10 1.00 0.97 0.93 0.93 0.94 0.87 0.82 0.77 0.69 0.71 0.79 0.89 0.96 0.84 0.74 0.73 0.73 0.80 1.00 1.06 1.20 1.47